EW4987 Weather Reports


Display with metric or nautical units.
time (UTC)temp
F
wind
direction
speed
MPH
gust
MPH
rain 1hr
in
rain 24hr
in
rain mn
in
humidity
%
barometer
mb
20260901013011 64 171 0.0 0.0 0.00 0.00 0.00 46 1011.2
20260901011507 65 128 0.0 0.0 0.00 0.00 0.00 49 1011.1
20260901004558 67 182 0.0 0.0 0.00 0.00 0.00 46 1010.7
20260901003057 68 207 0.0 0.0 0.00 0.00 0.00 44 1010.6
20260901001559 68 360 0.0 0.0 0.00 0.00 0.00 44 1010.5
20260901000051 68 220 0.0 0.0 0.00 0.00 0.00 41 1009.8
20260831234546 68 163 0.0 0.0 0.00 0.00 0.00 43 1009.6
20260831233041 69 202 0.0 0.0 0.00 0.00 0.00 46 1009.5
20260831231554 70 171 0.0 0.0 0.00 0.00 0.00 46 1009.4
20260831230034 71 172 0.0 0.0 0.00 0.00 0.00 46 1009.1
20260831224547 72 201 0.0 0.0 0.00 0.00 0.00 45 1008.7
20260831223024 72 182 0.0 0.0 0.00 0.00 0.00 45 1008.5
20260831221519 73 213 0.0 0.0 0.00 0.00 0.00 44 1008.2
20260831220015 74 157 0.0 0.0 0.00 0.00 0.00 40 1008.1
20260831214511 74 168 0.0 0.0 0.00 0.00 0.00 40 1008.1
20260831213006 75 252 0.0 0.0 0.00 0.00 0.00 41 1008.3
20260831211502 76 180 0.0 0.0 0.00 0.00 0.00 42 1008.2
20260831204553 76 174 0.0 0.0 0.00 0.00 0.00 41 1008.6
20260831203050 76 184 0.0 0.0 0.00 0.00 0.00 37 1008.6
20260831201544 77 161 0.0 0.0 0.00 0.00 0.00 39 1008.8
20260831200040 77 176 0.0 0.0 0.00 0.00 0.00 40 1008.9
20260831194551 77 360 0.0 0.0 0.00 0.00 0.00 40 1009.1
20260831193043 77 167 0.0 0.0 0.00 0.00 0.00 42 1009.3
20260831191542 76 171 0.0 0.0 0.00 0.00 0.00 42 1009.7
20260831190024 77 159 0.0 0.0 0.00 0.00 0.00 42 1009.9
20260831184518 76 163 0.0 0.0 0.00 0.00 0.00 41 1010.3
20260831183024 74 360 0.0 0.0 0.00 0.00 0.00 41 1010.9
20260831181508 72 136 0.0 0.0 0.00 0.00 0.00 19 1011.4
20260831180004 70 136 0.0 0.0 0.00 0.00 0.00 19 1011.8
20260831174600 69 136 0.0 0.0 0.00 0.00 0.00 30 1012.1
20260831173055 68 136 0.0 0.0 0.00 0.00 0.00 30 1012.5
20260831171551 67 136 0.0 0.0 0.00 0.00 0.00 23 1012.6
20260831170047 65 136 0.0 0.0 0.00 0.00 0.00 9 1012.9
20260831164543 63 136 0.0 0.0 0.00 0.00 0.00 10 1013.1
20260831163038 61 136 0.0 0.0 0.00 0.00 0.00 1 1013.2
20260831161534 59 136 0.0 0.0 0.00 0.00 0.00 1 1013.0
20260831160036 56 136 0.0 0.0 0.00 0.00 0.00 1 1013.2
20260831154545 54 136 0.0 0.0 0.00 0.00 0.00 1 1013.4
20260831153025 53 136 0.0 0.0 0.00 0.00 0.00 1 1013.4
20260831151525 53 136 0.0 0.0 0.00 0.00 0.00 1 1013.7
20260831150013 51 136 0.0 0.0 0.00 0.00 0.00 1 1014.0
20260831144506 50 136 0.0 1.0 0.00 0.00 0.00 1 1014.0
20260831143006 48 136 0.0 0.0 0.00 0.00 0.00 1 1013.9
20260831141558 47 136 0.0 0.0 0.00 0.00 0.00 1 1013.9
20260831140054 47 136 0.0 0.0 0.00 0.00 0.00 1 1013.8
20260831134557 45 136 0.0 0.0 0.00 0.01 0.00 1 1013.7
20260831133044 45 136 0.0 0.0 0.00 0.01 0.00 1 1013.6
20260831131543 44 136 0.0 0.0 0.00 0.01 0.00 1 1013.3
20260831130041 44 136 0.0 0.0 0.00 0.01 0.00 1 1012.9
20260831124545 45 136 0.0 0.0 0.00 0.04 0.00 1 1013.0
20260831123027 45 136 0.0 0.0 0.00 0.04 0.00 1 1012.9
20260831121532 45 136 0.0 0.0 0.00 0.04 0.00 1 1012.9
20260831120021 45 136 0.0 0.0 0.00 0.04 0.00 1 1012.9
20260831114514 45 136 0.0 0.0 0.00 0.04 0.00 1 1012.9
20260831113010 46 136 0.0 0.0 0.00 0.04 0.00 1 1012.9
20260831111508 46 136 0.0 0.0 0.00 0.04 0.00 1 1012.7
20260831110106 46 136 0.0 0.0 0.00 0.04 0.00 1 1012.4
20260831104557 46 136 0.0 0.0 0.00 0.04 0.00 1 1012.2
20260831103054 47 136 0.0 0.0 0.00 0.04 0.00 1 1012.4
20260831101558 47 136 0.0 0.0 0.00 0.04 0.00 1 1012.2
20260831094539 48 136 0.0 0.0 0.00 0.04 0.00 1 1012.0
20260831093044 48 136 0.0 0.0 0.00 0.04 0.00 1 1011.8
20260831091532 48 136 0.0 0.0 0.00 0.04 0.00 1 1011.7
20260831090026 49 136 0.0 0.0 0.00 0.04 0.00 1 1011.4
20260831084522 49 136 0.0 0.0 0.00 0.04 0.00 1 1011.4
20260831083016 49 136 0.0 0.0 0.00 0.04 0.00 1 1011.5
20260831081512 49 136 0.0 0.0 0.00 0.04 0.00 1 1011.4
20260831080009 50 136 0.0 0.0 0.00 0.04 0.00 1 1011.5
20260831074504 50 136 0.0 0.0 0.00 0.04 0.00 1 1011.4
20260831073103 50 136 0.0 0.0 0.00 0.04 0.00 1 1011.3
20260831071610 51 136 0.0 0.0 0.00 0.04 0.00 1 1011.4
20260831071524 51 136 0.0 0.0 0.00 0.04 0.00 1 1011.4
20260831070051 51 136 0.0 0.0 0.00 0.04 0.00 1 1011.3
20260831064547 51 136 0.0 0.0 0.00 0.04 0.00 1 1011.2
20260831063042 52 136 0.0 0.0 0.00 0.04 0.00 1 1011.1
20260831061537 52 136 0.0 0.0 0.00 0.04 0.00 1 1011.0
20260831060040 52 136 0.0 0.0 0.00 0.04 0.00 1 1010.8
20260831054529 53 136 0.0 0.0 0.00 0.07 0.04 1 1010.6
20260831053042 54 136 0.0 0.0 0.00 0.07 0.04 1 1010.6
20260831051520 55 136 0.0 0.0 0.00 0.07 0.04 1 1010.4
20260831050015 56 136 0.0 0.0 0.00 0.07 0.04 1 1010.2
20260831044513 56 136 0.0 0.0 0.00 0.07 0.04 1 1009.8
20260831043006 58 136 0.0 0.0 0.00 0.07 0.04 29 1009.5
20260831041502 58 136 0.0 0.0 0.00 0.07 0.04 29 1009.2
20260831040059 58 136 0.0 0.0 0.00 0.07 0.04 33 1009.0
20260831034554 60 136 0.0 0.0 0.00 0.07 0.04 44 1008.7
20260831033054 61 136 0.0 0.0 0.00 0.07 0.04 52 1008.4
20260831031544 62 136 0.0 0.0 0.00 0.07 0.04 53 1008.3
20260831030041 63 136 0.0 0.0 0.00 0.07 0.04 53 1008.0
20260831024536 63 136 0.0 0.0 0.00 0.07 0.04 52 1007.7
20260831023036 64 160 0.0 0.0 0.00 0.07 0.04 53 1007.4
20260831021536 65 232 0.0 0.0 0.00 0.07 0.04 51 1007.2
20260831020049 67 259 0.0 0.0 0.00 0.07 0.04 51 1007.0
20260831014519 69 259 0.0 0.0 0.00 0.07 0.04 47 1007.0